Pellston, MI

4:24 AM EDT on March 29, 2017 (GMT -0400)
Pellston Regional Airport Of Emmet County

Weather History for KPLN - January, 2013

Change the Weather History Date:

Friday, January 25, 2013

  Actual Average Record
Temperature  
Mean Temperature 12 °F -  
Max Temperature 18 °F 26 °F 51 °F (1950)
Min Temperature 5 °F 8 °F -23 °F (2004)
Degree Days  
Heating Degree Days 54    
Moisture  
Dew Point 7 °F    
Average Humidity 83    
Maximum Humidity 92    
Minimum Humidity 76    
Precipitation  
Precipitation 0.00 in - - ()
Sea Level Pressure  
Sea Level Pressure 30.08 in    
Wind  
Wind Speed 5 mph (SE)    
Max Wind Speed 12 mph    
Max Gust Speed -    
Visibility 4 miles    
Events Fog , Snow    
Averages and records for this station are not official NWS values.
T = Trace of Precipitation, MM = Missing Value Source: NWS Daily Summary

Daily Weather History Graph

Daily Weather History Graph

Search for Another Location

Airport or City:

Trip Planner

Search our weather history database for the weather conditions in past years. The results will help you decide how hot, cold, wet, or windy it might be!

Date:

Astronomy

Jan. 25, 2013 Rise Set
Actual Time 8:07 AM EST 5:36 PM EST
Civil Twilight 7:35 AM EST 6:08 PM EST
Nautical Twilight 6:59 AM EST 6:44 PM EST
Astronomical Twilight 6:24 AM EST 7:19 PM EST
Moon 4:32 PM EST (1/25) 6:47 AM EST (1/25)
Length of Visible Light 10h 32m
Length of Day
9h 28m
Waxing Gibbous, 98% of the Moon is Illuminated
Jan 25
Waxing Gibbous
Jan 26
Full
Feb 3
Last Quarter
Feb 10
New
Feb 17
First Quarter

Hourly Weather History & Observations

Time (EST) Temp. Windchill Dew Point Humidity Pressure Visibility Wind Dir Wind Speed Gust Speed Precip Events Conditions
12:54 AM 5.0 °F - -0.0 °F 80% 30.48 in 10.0 mi Calm Calm - N/A   Scattered Clouds
1:54 AM 5.0 °F -2.1 °F -0.9 °F 76% 30.43 in 10.0 mi SE 3.5 mph - N/A   Overcast
2:54 AM 5.0 °F -4.1 °F -0.0 °F 80% 30.40 in 10.0 mi SE 4.6 mph - N/A   Overcast
3:54 AM 6.1 °F -0.9 °F -0.0 °F 76% 30.36 in 10.0 mi SSE 3.5 mph - N/A   Overcast
4:54 AM 7.0 °F -3.3 °F 1.9 °F 80% 30.33 in 5.0 mi SE 5.8 mph - N/A   Haze
5:54 AM 8.1 °F -3.2 °F 3.0 °F 80% 30.29 in 7.0 mi SE 6.9 mph - 0.00 in   Overcast
7:40 AM 8.6 °F 0.1 °F 5.0 °F 85% 30.17 in 2.5 mi SSE 4.6 mph - 0.00 in Snow Light Snow
7:54 AM 9.0 °F 0.6 °F 5.0 °F 84% 30.23 in 1.8 mi SSE 4.6 mph - 0.00 in Snow Light Snow
8:02 AM 8.6 °F 0.1 °F 5.0 °F 85% 30.17 in 2.0 mi SSE 4.6 mph - 0.00 in Snow Light Snow
8:17 AM 8.6 °F -1.3 °F 5.0 °F 85% 30.16 in 3.0 mi SSE 5.8 mph - 0.00 in Snow Light Snow
8:24 AM 8.6 °F -1.3 °F 5.0 °F 85% 30.15 in 2.5 mi SE 5.8 mph - 0.00 in Snow Light Snow
8:33 AM 10.4 °F 0.8 °F 5.0 °F 79% 30.14 in 4.0 mi SE 5.8 mph - 0.00 in   Haze
8:54 AM 10.0 °F 1.8 °F 6.1 °F 84% 30.20 in 5.0 mi SSE 4.6 mph - 0.00 in   Overcast
9:54 AM 10.9 °F -1.8 °F 7.0 °F 84% 30.17 in 4.0 mi SE 9.2 mph - 0.00 in Snow Light Snow
10:54 AM 12.9 °F 0.7 °F 8.1 °F 81% 30.15 in 3.0 mi SE 9.2 mph - 0.00 in Snow Light Snow
11:06 AM 12.2 °F -0.2 °F 8.6 °F 85% 30.08 in 2.5 mi SE 9.2 mph - 0.00 in Snow Light Snow
11:23 AM 14.0 °F 2.0 °F 8.6 °F 79% 30.07 in 3.0 mi SSE 9.2 mph - 0.00 in Snow Light Snow
11:54 AM 15.1 °F 2.5 °F 10.0 °F 80% 30.10 in 6.0 mi SE 10.4 mph - 0.00 in   Haze
12:13 PM 15.8 °F 2.7 °F 10.4 °F 79% 30.03 in 2.5 mi SE 11.5 mph - 0.00 in Snow Light Snow
12:21 PM 15.8 °F 4.2 °F 10.4 °F 79% 30.03 in 4.0 mi SSE 9.2 mph - 0.00 in Snow Light Snow
12:54 PM 17.1 °F 5.0 °F 10.9 °F 77% 30.06 in 4.0 mi SE 10.4 mph - 0.00 in Snow Light Snow
1:34 PM 17.6 °F 6.4 °F 12.2 °F 79% 29.97 in 2.0 mi SE 9.2 mph - 0.00 in Snow Light Snow
1:47 PM 17.6 °F 5.7 °F 12.2 °F 79% 29.97 in 5.0 mi SE 10.4 mph - 0.00 in   Overcast
1:54 PM 18.0 °F 7.7 °F 12.9 °F 81% 30.01 in 6.0 mi SSE 8.1 mph - 0.00 in   Haze
2:31 PM 17.6 °F 6.4 °F 12.2 °F 79% 29.95 in 2.5 mi SSE 9.2 mph - 0.00 in Snow Light Snow
2:39 PM 17.6 °F 7.3 °F 14.0 °F 86% 29.95 in 0.8 mi SE 8.1 mph - 0.00 in Snow Light Snow
2:50 PM 17.6 °F 7.3 °F 12.2 °F 79% 29.95 in 1.8 mi SSE 8.1 mph - 0.00 in Snow Light Snow
2:54 PM 18.0 °F 7.7 °F 12.9 °F 81% 30.00 in 2.5 mi SE 8.1 mph - 0.00 in Snow Light Snow
3:03 PM 17.6 °F 8.2 °F 12.2 °F 79% 29.95 in 1.2 mi SE 6.9 mph - 0.00 in Snow Light Snow
3:54 PM 18.0 °F 7.7 °F 14.0 °F 84% 30.00 in 1.5 mi SE 8.1 mph - 0.00 in Snow Light Snow
4:06 PM 17.6 °F 8.2 °F 14.0 °F 86% 29.95 in 3.0 mi SE 6.9 mph - 0.00 in Snow Light Snow
4:54 PM 18.0 °F 8.7 °F 14.0 °F 84% 30.00 in 3.0 mi SE 6.9 mph - 0.00 in Snow Light Snow
5:26 PM 17.6 °F 9.3 °F 14.0 °F 86% 29.96 in 2.0 mi SE 5.8 mph - 0.00 in Snow Light Snow
5:54 PM 18.0 °F 7.7 °F 14.0 °F 84% 30.01 in 3.0 mi SE 8.1 mph - 0.00 in Snow Light Snow
6:54 PM 17.1 °F 10.0 °F 12.9 °F 84% 30.03 in 4.0 mi SE 4.6 mph - 0.00 in Snow Light Snow
7:54 PM 16.0 °F 10.4 °F 12.0 °F 84% 30.03 in 9.0 mi SE 3.5 mph - 0.00 in   Overcast
8:54 PM 12.9 °F - 9.0 °F 84% 30.02 in 7.0 mi Calm Calm - N/A   Scattered Clouds
9:12 PM 8.6 °F - 6.8 °F 92% 29.98 in 1.8 mi Calm Calm - N/A   Clear
9:16 PM 6.8 °F - 3.2 °F 85% 29.98 in 0.5 mi Calm Calm - N/A Fog Light Freezing Fog
9:20 PM 6.8 °F - 3.2 °F 85% 29.98 in 0.2 mi Calm Calm - N/A Fog Light Freezing Fog
9:34 PM 8.6 °F - 6.8 °F 92% 29.98 in 0.2 mi Calm Calm - N/A Fog Light Freezing Fog
9:47 PM 6.8 °F - 3.2 °F 85% 29.98 in 0.5 mi Calm Calm - N/A Fog Light Freezing Fog
9:54 PM 6.1 °F - 3.0 °F 87% 30.04 in 0.5 mi Calm Calm - N/A Fog Light Freezing Fog
10:04 PM 6.8 °F - 3.2 °F 85% 29.99 in 2.0 mi Calm Calm - N/A   Overcast
10:11 PM 6.8 °F - 1.4 °F 79% 29.99 in 10.0 mi Calm Calm - N/A   Overcast
10:26 PM 6.8 °F - 3.2 °F 85% 29.99 in 1.5 mi Calm Calm - N/A   Overcast
10:37 PM 5.0 °F - 3.2 °F 92% 29.99 in 3.0 mi Calm Calm - N/A   Overcast
10:54 PM 6.1 °F - 1.0 °F 80% 30.05 in 10.0 mi Calm Calm - N/A   Overcast
11:54 PM 7.0 °F - 3.9 °F 87% 30.06 in 10.0 mi Calm Calm - N/A   Overcast